This demonstration page uses our WeatherBlox Daily Observations layout. Learn more.

Left ArrowRight Arrow

39.92423, -83.80882

Hourly Observations for February 18, 2020

Temp ( °F °C ) Dew Point ( °F °C ) Humidity (%) Winds ( mph kmh ) Pressure ( in mb ) Visibility ( mi km ) Precip ( " mm )
12:56 am 00:56 Cloudy 44 6.7 35 1.7 71 71 S 9 15 29.89 1012 10 16 0.41 10.41
1:56 am 01:56 Cloudy 51 10.6 43 6.1 74 74 SSW 17 28 29.88 1012 10 16 N/A
2:51 am 02:51 Cloudy with Light Rain 52 11 45 7 77 77 SW 14 22 29.89 1012 10 16 0.55 13.97
2:56 am 02:56 Cloudy with Light Rain 51 10.6 45 7.2 80 80 SW 14 22 29.90 1012 10 16 0.55 13.97
3:42 am 03:42 Cloudy with Light Rain 48 9 48 9 100 100 SW 8 13 29.91 1013 3 5 0.00 0.00
3:56 am 03:56 Cloudy with Light Rain 47 8.3 47 8.3 100 100 SW 7 11 29.91 1013 4 6 0.03 0.76
4:29 am 04:29 Cloudy with Light Rain 46 8 46 8 100 100 SSW 6 9 29.91 1013 3 5 0.03 0.76
4:42 am 04:42 Cloudy with Light Rain 46 8 46 8 100 100 SW 7 11 29.92 1013 3 5 0.03 0.76
4:56 am 04:56 Cloudy with Light Rain 47 8.3 47 8.3 100 100 SW 9 15 29.91 1013 4 6 0.03 0.76
5:03 am 05:03 Cloudy with Light Rain 48 9 48 9 100 100 SW 13 20 29.91 1013 6 10 0.00 0.00
5:19 am 05:19 Cloudy 48 9 48 9 100 100 SW 14 22 29.92 1013 10 16 0.00 0.00
5:56 am 05:56 Cloudy with Light Rain 49 9.4 49 9.4 100 100 SW 16 26 29.93 1014 5 8 0.00 0.00
6:56 am 06:56 Cloudy with Mist and Fog 49 9.4 49 9.4 100 100 WSW 15 24 29.95 1014 5 8 0.02 0.51
7:10 am 07:10 Cloudy with Light Rain 48 9 48 9 100 100 WSW 14 22 29.96 1014 3 4 0.14 3.56
7:23 am 07:23 Cloudy with Light Rain 48 9 48 9 100 100 WSW 13 20 29.96 1014 4 6 0.25 6.35
7:46 am 07:46 Cloudy with Mist and Fog 48 9 48 9 100 100 WSW 12 19 29.97 1015 6 10 0.38 9.65
7:56 am 07:56 Cloudy 49 9.4 49 9.4 100 100 SW 13 20 29.96 1015 7 11 0.39 9.91
8:56 am 08:56 Cloudy 49 9.4 49 9.4 100 100 W 10 17 30.00 1016 10 16 1.24 31.50
9:56 am 09:56 Cloudy 49 9.4 49 9.4 100 100 W 13 20 30.01 1016 10 16 0.15 3.81
10:35 am 10:35 Cloudy 46 8 46 8 100 100 WNW 16 26 30.03 1017 7 11 0.25 6.35
10:56 am 10:56 Cloudy 46 7.8 46 7.8 100 100 WNW 15 24 30.04 1017 8 13 1.33 33.78
11:43 am 11:43 Cloudy 46 8 45 7 93 93 WNW 17 28 30.06 1018 10 16 0.21 5.33
11:56 am 11:56 Cloudy 47 8.3 44 6.7 90 90 WNW 16 26 30.06 1018 10 16 0.30 7.62
12:17 pm 12:17 Cloudy 46 8 43 6 87 87 WNW 16 26 30.08 1019 10 16 0.06 1.52
12:56 pm 12:56 Cloudy 45 7.2 41 5 86 86 WNW 16 26 30.08 1019 10 16 0.11 2.79
1:36 pm 13:36 Cloudy 45 7 37 3 76 76 NW 12 19 30.07 1018 10 16 0.38 9.65
1:56 pm 13:56 Cloudy 43 6.1 38 3.3 82 82 NW 12 19 30.06 1018 10 16 0.44 11.18
2:21 pm 14:21 Cloudy 43 6 37 3 81 81 WNW 17 28 30.09 1019 10 16 0.01 0.25
2:56 pm 14:56 Cloudy 41 5 36 2.2 82 82 NW 16 26 30.10 1019 10 16 0.30 7.62
3:56 pm 15:56 Mostly Cloudy 41 5 35 1.7 79 79 NNW 18 30 30.11 1020 10 16 0.35 8.89
4:56 pm 16:56 Mostly Cloudy 40 4.4 34 1.1 79 79 NW 14 22 30.14 1021 10 16 0.22 5.59
5:21 pm 17:21 Partly Cloudy 39 4 34 1 81 81 NW 12 19 30.17 1022 10 16 0.07 1.78
5:43 pm 17:43 Mostly Cloudy 39 4 34 1 81 81 NW 14 22 30.17 1022 10 16 0.07 1.78
5:56 pm 17:56 Cloudy 39 3.9 33 0.6 79 79 NNW 15 24 30.17 1022 10 16 0.07 1.78
6:26 pm 18:26 Mostly Cloudy 37 3 32 undefined 81 81 NNW 13 20 30.22 1023 10 16 N/A
6:56 pm 18:56 Mostly Cloudy 37 2.8 31 -0.6 79 79 NW 10 17 30.24 1024 10 16 N/A
7:56 pm 19:56 Partly Cloudy 36 2.2 31 -0.6 82 82 NW 8 13 30.26 1025 10 16 N/A
8:56 pm 20:56 Clear 33 0.6 30 -1.1 89 89 NW 7 11 30.28 1026 10 16 0.04 1.02
9:56 pm 21:56 Clear 32 undefined 29 -1.7 88 88 NW 6 9 30.29 1026 10 16 0.16 4.06
10:56 pm 22:56 Clear 29 -1.7 28 -2.2 96 96 NNW 7 11 30.32 1027 10 16 0.10 2.54
11:56 pm 23:56 Clear 29 -1.7 27 -2.8 92 92 NW 8 13 30.33 1027 10 16 1.00 25.40

Powered by AerisWeather